2023-121B (57627 NORAD) Tracking and Keplerian Element Data

This shows tracking and keplerian element data for the satellite.

Feedback or suggestion? Click here.




ElementValue
Catalog57627
Name2023-121B
Epoch Orbit189
Epoch Day239.15885638
Epoch Year2023
RAAN297.6137
Inclination45.0043
Eccentricity0.0006751
Argument of Perigee310.9342
Mean Anonmoly49.093
Mean Motion14.57780586
Decay Rate9.45E-06
L11 57627U 23121B 23239.15885638 .00000945 00000+0 23825-3 0 9999
L22 57627 45.0043 297.6137 0006751 310.9342 49.0930 14.57780586 1895



Live tracking and technical data element details for 2023-121B (NORAD 57627). 2023-121B can be tracked NOW for your location showing map with azimuth and elevation plus other details from your city location.







IsCatalogInMostPopularTable: catalog: 57627, numindb: 17
Update: records affected: 1



GetName: 57627 2023-121B

Hit Count: updated at: Mon, 04 Dec 2023 03:36:44 GMT